Time,TemperatureF,DewpointF,PressureIn,WindDirection,WindDirectionDegrees,WindSpeedMPH,WindSpeedGustMPH,Humidity,HourlyPrecipIn,Conditions,Clouds,dailyrainin,SoftwareType,DateUTC
2013-06-04 00:03:00,59.0,-99.9,-100.00,ESE,114,3.0,5.0,-999,0.00,,,0.00,,2013-06-04 05:03:00,
2013-06-04 00:12:00,59.0,-99.9,-100.00,ESE,114,3.0,5.0,-999,0.00,,,0.00,,2013-06-04 05:12:00,
2013-06-04 00:22:00,59.0,-99.9,-100.00,ESE,114,3.0,5.0,-999,0.00,,,0.00,,2013-06-04 05:22:00,
2013-06-04 00:32:00,58.0,-99.9,-100.00,ESE,114,3.0,6.0,-999,0.00,,,0.00,,2013-06-04 05:32:00,
2013-06-04 00:42:00,58.0,-99.9,-100.00,ESE,114,3.0,6.0,-999,0.00,,,0.00,,2013-06-04 05:42:00,
2013-06-04 00:53:00,58.0,-99.9,-100.00,ESE,115,3.0,6.0,-999,0.00,,,0.00,,2013-06-04 05:53:00,
2013-06-04 01:02:00,58.0,-99.9,-100.00,ESE,115,3.0,6.0,-999,0.00,,,0.00,,2013-06-04 06:02:00,
2013-06-04 01:12:00,58.0,-99.9,-100.00,ESE,115,3.0,6.0,-999,0.00,,,0.00,,2013-06-04 06:12:00,
2013-06-04 01:22:00,58.0,-99.9,-100.00,ESE,115,3.0,6.0,-999,0.00,,,0.00,,2013-06-04 06:22:00,
2013-06-04 01:32:00,58.0,-99.9,-100.00,ESE,118,3.0,5.0,-999,0.00,,,0.00,,2013-06-04 06:32:00,
2013-06-04 01:42:00,58.0,-99.9,-100.00,ESE,118,3.0,5.0,-999,0.00,,,0.00,,2013-06-04 06:42:00,
2013-06-04 01:52:00,58.0,-99.9,-100.00,ESE,118,3.0,5.0,-999,0.00,,,0.00,,2013-06-04 06:52:00,
2013-06-04 02:02:00,57.0,-99.9,-100.00,East,100,4.0,5.0,-999,0.00,,,0.00,,2013-06-04 07:02:00,
2013-06-04 02:13:00,57.0,-99.9,-100.00,East,100,4.0,5.0,-999,0.00,,,0.00,,2013-06-04 07:13:00,
2013-06-04 02:22:00,57.0,-99.9,-100.00,East,100,4.0,5.0,-999,0.00,,,0.00,,2013-06-04 07:22:00,
2013-06-04 02:32:00,57.0,-99.9,-100.00,East,100,4.0,6.0,-999,0.00,,,0.00,,2013-06-04 07:32:00,
2013-06-04 02:42:00,57.0,-99.9,-100.00,East,100,4.0,6.0,-999,0.00,,,0.00,,2013-06-04 07:42:00,
2013-06-04 02:52:00,57.0,-99.9,-100.00,East,100,4.0,6.0,-999,0.00,,,0.00,,2013-06-04 07:52:00,
2013-06-04 03:02:00,57.0,-99.9,-100.00,ESE,122,3.0,5.0,-999,0.00,,,0.00,,2013-06-04 08:02:00,
2013-06-04 03:12:00,57.0,-99.9,-100.00,ESE,122,3.0,5.0,-999,0.00,,,0.00,,2013-06-04 08:12:00,
2013-06-04 03:22:00,57.0,-99.9,-100.00,ESE,122,3.0,5.0,-999,0.00,,,0.00,,2013-06-04 08:22:00,
2013-06-04 03:32:00,57.0,-99.9,-100.00,ESE,109,2.0,5.0,-999,0.00,,,0.00,,2013-06-04 08:32:00,
2013-06-04 03:42:00,57.0,-99.9,-100.00,ESE,109,2.0,5.0,-999,0.00,,,0.00,,2013-06-04 08:42:00,
2013-06-04 03:52:00,57.0,-99.9,-100.00,SE,141,1.0,3.0,-999,0.00,,,0.00,,2013-06-04 08:52:00,
2013-06-04 04:02:00,57.0,-99.9,-100.00,SE,141,1.0,3.0,-999,0.00,,,0.00,,2013-06-04 09:02:00,
2013-06-04 04:13:00,57.0,-99.9,-100.00,SE,141,1.0,3.0,-999,0.00,,,0.00,,2013-06-04 09:13:00,
2013-06-04 04:22:00,57.0,-99.9,-100.00,SE,141,1.0,3.0,-999,0.00,,,0.00,,2013-06-04 09:22:00,
2013-06-04 04:33:00,56.0,-99.9,-100.00,ESE,117,4.0,7.0,-999,0.00,,,0.00,,2013-06-04 09:33:00,
2013-06-04 04:43:00,56.0,-99.9,-100.00,ESE,117,4.0,7.0,-999,0.00,,,0.00,,2013-06-04 09:43:00,
2013-06-04 04:53:00,56.0,-99.9,-100.00,ESE,117,4.0,7.0,-999,0.00,,,0.00,,2013-06-04 09:53:00,
2013-06-04 05:03:00,56.0,-99.9,-100.00,ESE,108,4.0,7.0,-999,0.00,,,0.00,,2013-06-04 10:03:00,
2013-06-04 05:12:00,56.0,-99.9,-100.00,ESE,108,4.0,7.0,-999,0.00,,,0.00,,2013-06-04 10:12:00,
2013-06-04 05:23:00,56.0,-99.9,-100.00,ESE,108,4.0,7.0,-999,0.00,,,0.00,,2013-06-04 10:23:00,
2013-06-04 05:33:00,55.0,-99.9,-100.00,ESE,117,4.0,5.0,-999,0.00,,,0.00,,2013-06-04 10:33:00,
2013-06-04 05:42:00,55.0,-99.9,-100.00,ESE,117,4.0,5.0,-999,0.00,,,0.00,,2013-06-04 10:42:00,
2013-06-04 05:53:00,56.0,-99.9,-100.00,ESE,106,5.0,8.0,-999,0.00,,,0.00,,2013-06-04 10:53:00,
2013-06-04 06:02:00,56.0,-99.9,-100.00,ESE,106,5.0,8.0,-999,0.00,,,0.00,,2013-06-04 11:02:00,
2013-06-04 06:12:00,56.0,-99.9,-100.00,ESE,106,5.0,8.0,-999,0.00,,,0.00,,2013-06-04 11:12:00,
2013-06-04 06:22:00,56.0,-99.9,-100.00,ESE,106,5.0,8.0,-999,0.00,,,0.00,,2013-06-04 11:22:00,
2013-06-04 06:32:00,56.0,-99.9,-100.00,East,100,6.0,9.0,-999,0.00,,,0.00,,2013-06-04 11:32:00,
2013-06-04 06:43:00,56.0,-99.9,-100.00,East,100,6.0,9.0,-999,0.00,,,0.00,,2013-06-04 11:43:00,
2013-06-04 06:52:00,57.0,-99.9,-100.00,ESE,104,5.0,7.0,-999,0.00,,,0.00,,2013-06-04 11:52:00,
2013-06-04 07:02:00,57.0,-99.9,-100.00,ESE,104,5.0,7.0,-999,0.00,,,0.00,,2013-06-04 12:02:00,
2013-06-04 07:12:00,57.0,-99.9,-100.00,ESE,104,5.0,7.0,-999,0.00,,,0.00,,2013-06-04 12:12:00,
2013-06-04 07:22:00,57.0,-99.9,-100.00,ESE,104,5.0,7.0,-999,0.00,,,0.00,,2013-06-04 12:22:00,
2013-06-04 07:32:00,57.0,-99.9,-100.00,SE,124,3.0,6.0,-999,0.00,,,0.00,,2013-06-04 12:32:00,
2013-06-04 07:42:00,57.0,-99.9,-100.00,SE,124,3.0,6.0,-999,0.00,,,0.00,,2013-06-04 12:42:00,
2013-06-04 07:53:00,59.0,-99.9,-100.00,ESE,106,3.0,6.0,-999,0.00,,,0.00,,2013-06-04 12:53:00,
2013-06-04 08:03:00,59.0,-99.9,-100.00,ESE,106,3.0,6.0,-999,0.00,,,0.00,,2013-06-04 13:03:00,
2013-06-04 08:12:00,59.0,-99.9,-100.00,ESE,106,3.0,6.0,-999,0.00,,,0.00,,2013-06-04 13:12:00,
2013-06-04 08:23:00,59.0,-99.9,-100.00,ESE,106,3.0,6.0,-999,0.00,,,0.00,,2013-06-04 13:23:00,
2013-06-04 08:32:00,62.0,-99.9,-100.00,SE,128,4.0,6.0,-999,0.00,,,0.00,,2013-06-04 13:32:00,
2013-06-04 08:42:00,62.0,-99.9,-100.00,SE,128,4.0,6.0,-999,0.00,,,0.00,,2013-06-04 13:42:00,
2013-06-04 08:52:00,62.0,-99.9,-100.00,SE,128,4.0,6.0,-999,0.00,,,0.00,,2013-06-04 13:52:00,
2013-06-04 09:02:00,65.0,-99.9,-100.00,SE,126,3.0,7.0,-999,0.00,,,0.00,,2013-06-04 14:02:00,
2013-06-04 09:12:00,65.0,-99.9,-100.00,SE,126,3.0,7.0,-999,0.00,,,0.00,,2013-06-04 14:12:00,
2013-06-04 09:23:00,65.0,-99.9,-100.00,SE,126,3.0,7.0,-999,0.00,,,0.00,,2013-06-04 14:23:00,
2013-06-04 09:32:00,66.0,-99.9,-100.00,SSE,149,3.0,7.0,-999,0.00,,,0.00,,2013-06-04 14:32:00,
2013-06-04 09:43:00,66.0,-99.9,-100.00,SSE,149,3.0,7.0,-999,0.00,,,0.00,,2013-06-04 14:43:00,
2013-06-04 09:52:00,68.0,-99.9,-100.00,SSE,166,2.0,5.0,-999,0.00,,,0.00,,2013-06-04 14:52:00,
2013-06-04 10:02:00,68.0,-99.9,-100.00,SSE,166,2.0,5.0,-999,0.00,,,0.00,,2013-06-04 15:02:00,
2013-06-04 10:12:00,68.0,-99.9,-100.00,SSE,166,2.0,5.0,-999,0.00,,,0.00,,2013-06-04 15:12:00,
2013-06-04 10:22:00,68.0,-99.9,-100.00,SSE,166,2.0,5.0,-999,0.00,,,0.00,,2013-06-04 15:22:00,
2013-06-04 10:33:00,67.0,-99.9,-100.00,South,185,3.0,4.0,-999,0.00,,,0.00,,2013-06-04 15:33:00,
2013-06-04 10:42:00,67.0,-99.9,-100.00,South,185,3.0,4.0,-999,0.00,,,0.00,,2013-06-04 15:42:00,
2013-06-04 10:53:00,67.0,-99.9,-100.00,South,185,3.0,4.0,-999,0.00,,,0.00,,2013-06-04 15:53:00,
2013-06-04 11:03:00,70.0,-99.9,-100.00,SSE,158,2.0,4.0,-999,0.00,,,0.00,,2013-06-04 16:03:00,
2013-06-04 11:13:00,70.0,-99.9,-100.00,SSE,158,2.0,4.0,-999,0.00,,,0.00,,2013-06-04 16:13:00,
2013-06-04 11:23:00,70.0,-99.9,-100.00,SSE,158,2.0,4.0,-999,0.00,,,0.00,,2013-06-04 16:23:00,
2013-06-04 11:33:00,71.0,-99.9,-100.00,SE,142,1.0,6.0,-999,0.00,,,0.00,,2013-06-04 16:33:00,
2013-06-04 11:42:00,71.0,-99.9,-100.00,SE,142,1.0,6.0,-999,0.00,,,0.00,,2013-06-04 16:42:00,
2013-06-04 11:53:00,71.0,-99.9,-100.00,SE,142,1.0,6.0,-999,0.00,,,0.00,,2013-06-04 16:53:00,
2013-06-04 12:03:00,71.0,-99.9,-100.00,SSW,209,2.0,6.0,-999,0.00,,,0.00,,2013-06-04 17:03:00,
2013-06-04 12:12:00,71.0,-99.9,-100.00,SSW,209,2.0,6.0,-999,0.00,,,0.00,,2013-06-04 17:12:00,
2013-06-04 12:23:00,71.0,-99.9,-100.00,SSW,209,2.0,6.0,-999,0.00,,,0.00,,2013-06-04 17:23:00,
2013-06-04 12:33:00,73.0,-99.9,-100.00,SSE,151,2.0,3.0,-999,0.00,,,0.00,,2013-06-04 17:33:00,
2013-06-04 12:42:00,73.0,-99.9,-100.00,SSE,151,2.0,3.0,-999,0.00,,,0.00,,2013-06-04 17:42:00,
2013-06-04 12:52:00,73.0,-99.9,-100.00,SSE,151,2.0,3.0,-999,0.00,,,0.00,,2013-06-04 17:52:00,
2013-06-04 13:02:00,72.0,-99.9,-100.00,SSE,151,3.0,7.0,-999,0.00,,,0.00,,2013-06-04 18:02:00,
2013-06-04 13:12:00,72.0,-99.9,-100.00,SSE,151,3.0,7.0,-999,0.00,,,0.00,,2013-06-04 18:12:00,
2013-06-04 13:22:00,72.0,-99.9,-100.00,SSE,151,3.0,7.0,-999,0.00,,,0.00,,2013-06-04 18:22:00,
2013-06-04 13:32:00,70.0,-99.9,-100.00,ESE,118,5.0,11.0,-999,0.00,,,0.00,,2013-06-04 18:32:00,
2013-06-04 13:42:00,70.0,-99.9,-100.00,ESE,118,5.0,11.0,-999,0.00,,,0.00,,2013-06-04 18:42:00,
2013-06-04 13:53:00,72.0,-99.9,-100.00,ESE,107,6.0,7.0,-999,0.00,,,-99.99,,2013-06-04 18:53:00,
2013-06-04 14:02:00,72.0,-99.9,-100.00,ESE,107,6.0,7.0,-999,0.00,,,-99.99,,2013-06-04 19:02:00,
2013-06-04 14:12:00,72.0,-99.9,-100.00,ESE,107,6.0,7.0,-999,0.00,,,-99.99,,2013-06-04 19:12:00,
2013-06-04 14:22:00,72.0,-99.9,-100.00,ESE,107,6.0,7.0,-999,0.00,,,-99.99,,2013-06-04 19:22:00,
2013-06-04 14:33:00,72.0,-99.9,-100.00,ESE,114,10.0,15.0,-999,0.00,,,0.00,,2013-06-04 19:33:00,
2013-06-04 14:42:00,72.0,-99.9,-100.00,ESE,114,10.0,15.0,-999,0.00,,,0.00,,2013-06-04 19:42:00,
2013-06-04 14:52:00,72.0,-99.9,-100.00,ESE,114,10.0,15.0,-999,0.00,,,0.00,,2013-06-04 19:52:00,
2013-06-04 15:03:00,71.0,-99.9,-100.00,ESE,108,14.0,22.0,-999,0.00,,,0.00,,2013-06-04 20:03:00,
2013-06-04 15:13:00,71.0,-99.9,-100.00,ESE,108,14.0,22.0,-999,0.00,,,0.00,,2013-06-04 20:13:00,
2013-06-04 15:22:00,71.0,-99.9,-100.00,ESE,108,14.0,22.0,-999,0.00,,,0.00,,2013-06-04 20:22:00,
2013-06-04 15:33:00,71.0,-99.9,-100.00,ESE,108,11.0,15.0,-999,0.00,,,0.00,,2013-06-04 20:33:00,
2013-06-04 15:42:00,71.0,-99.9,-100.00,ESE,108,11.0,15.0,-999,0.00,,,0.00,,2013-06-04 20:42:00,
2013-06-04 15:53:00,71.0,-99.9,-100.00,ESE,108,11.0,15.0,-999,0.00,,,0.00,,2013-06-04 20:53:00,
2013-06-04 16:02:00,72.0,-99.9,-100.00,East,92,8.0,11.0,-999,0.00,,,0.00,,2013-06-04 21:02:00,
2013-06-04 16:12:00,72.0,-99.9,-100.00,East,92,8.0,11.0,-999,0.00,,,0.00,,2013-06-04 21:12:00,
2013-06-04 16:22:00,72.0,-99.9,-100.00,East,92,8.0,11.0,-999,0.00,,,0.00,,2013-06-04 21:22:00,
2013-06-04 16:33:00,72.0,-99.9,-100.00,East,93,7.0,10.0,-999,0.00,,,0.00,,2013-06-04 21:33:00,
2013-06-04 16:43:00,72.0,-99.9,-100.00,East,93,7.0,10.0,-999,0.00,,,0.00,,2013-06-04 21:43:00,
2013-06-04 16:53:00,72.0,-99.9,-100.00,East,101,7.0,11.0,-999,0.00,,,0.00,,2013-06-04 21:53:00,
2013-06-04 17:02:00,72.0,-99.9,-100.00,East,101,7.0,11.0,-999,0.00,,,0.00,,2013-06-04 22:02:00,
2013-06-04 17:13:00,72.0,-99.9,-100.00,East,101,7.0,11.0,-999,0.00,,,0.00,,2013-06-04 22:13:00,
2013-06-04 17:22:00,72.0,-99.9,-100.00,East,101,7.0,11.0,-999,0.00,,,0.00,,2013-06-04 22:22:00,
2013-06-04 17:33:00,71.0,-99.9,-100.00,ESE,109,4.0,9.0,-999,0.00,,,0.00,,2013-06-04 22:33:00,
2013-06-04 17:42:00,71.0,-99.9,-100.00,ESE,109,4.0,9.0,-999,0.00,,,0.00,,2013-06-04 22:42:00,
2013-06-04 17:52:00,71.0,-99.9,-100.00,ESE,117,6.0,9.0,-999,0.00,,,0.00,,2013-06-04 22:52:00,
2013-06-04 18:02:00,71.0,-99.9,-100.00,ESE,117,6.0,9.0,-999,0.00,,,0.00,,2013-06-04 23:02:00,
2013-06-04 18:12:00,71.0,-99.9,-100.00,ESE,117,6.0,9.0,-999,0.00,,,0.00,,2013-06-04 23:12:00,
2013-06-04 18:22:00,71.0,-99.9,-100.00,ESE,117,6.0,9.0,-999,0.00,,,0.00,,2013-06-04 23:22:00,
2013-06-04 18:32:00,71.0,-99.9,-100.00,ESE,117,5.0,10.0,-999,0.00,,,0.00,,2013-06-04 23:32:00,
2013-06-04 18:42:00,71.0,-99.9,-100.00,ESE,117,5.0,10.0,-999,0.00,,,0.00,,2013-06-04 23:42:00,
2013-06-04 18:52:00,71.0,-99.9,-100.00,ESE,117,5.0,10.0,-999,0.00,,,0.00,,2013-06-04 23:52:00,
2013-06-04 19:02:00,71.0,-99.9,-100.00,ESE,111,6.0,9.0,-999,0.00,,,0.00,,2013-06-05 00:02:00,
2013-06-04 19:12:00,71.0,-99.9,-100.00,ESE,111,6.0,9.0,-999,0.00,,,0.00,,2013-06-05 00:12:00,
2013-06-04 19:22:00,71.0,-99.9,-100.00,ESE,111,6.0,9.0,-999,0.00,,,0.00,,2013-06-05 00:22:00,
2013-06-04 19:33:00,70.0,-99.9,-100.00,ESE,109,7.0,10.0,-999,0.00,,,0.00,,2013-06-05 00:33:00,
2013-06-04 19:42:00,70.0,-99.9,-100.00,ESE,109,7.0,10.0,-999,0.00,,,0.00,,2013-06-05 00:42:00,
2013-06-04 20:32:00,69.0,-99.9,-100.00,ESE,107,4.0,7.0,-999,0.00,,,0.00,,2013-06-05 01:32:00,
2013-06-04 20:42:00,69.0,-99.9,-100.00,ESE,107,4.0,7.0,-999,0.00,,,0.00,,2013-06-05 01:42:00,
2013-06-04 20:52:00,68.0,-99.9,-100.00,East,98,2.0,4.0,-999,0.00,,,0.00,,2013-06-05 01:52:00,
2013-06-04 21:02:00,68.0,-99.9,-100.00,East,98,2.0,4.0,-999,0.00,,,0.00,,2013-06-05 02:02:00,
2013-06-04 21:12:00,68.0,-99.9,-100.00,East,98,2.0,4.0,-999,0.00,,,0.00,,2013-06-05 02:12:00,
2013-06-04 21:22:00,68.0,-99.9,-100.00,East,98,2.0,4.0,-999,0.00,,,0.00,,2013-06-05 02:22:00,
2013-06-04 21:32:00,68.0,-99.9,-100.00,East,98,4.0,5.0,-999,0.00,,,0.00,,2013-06-05 02:32:00,
2013-06-04 21:42:00,68.0,-99.9,-100.00,East,98,4.0,5.0,-999,0.00,,,0.00,,2013-06-05 02:42:00,
2013-06-04 21:52:00,67.0,-99.9,-100.00,East,80,4.0,5.0,-999,0.00,,,0.00,,2013-06-05 02:52:00,
2013-06-04 22:03:00,67.0,-99.9,-100.00,East,80,4.0,5.0,-999,0.00,,,0.00,,2013-06-05 03:03:00,
2013-06-04 22:12:00,67.0,-99.9,-100.00,East,80,4.0,5.0,-999,0.00,,,0.00,,2013-06-05 03:12:00,
2013-06-04 22:22:00,67.0,-99.9,-100.00,East,80,4.0,5.0,-999,0.00,,,0.00,,2013-06-05 03:22:00,
2013-06-04 22:33:00,67.0,-99.9,-100.00,ESE,105,3.0,4.0,-999,0.00,,,0.00,,2013-06-05 03:33:00,
2013-06-04 22:43:00,67.0,-99.9,-100.00,ESE,105,3.0,4.0,-999,0.00,,,0.00,,2013-06-05 03:43:00,
2013-06-04 22:53:00,66.0,-99.9,-100.00,ENE,74,6.0,8.0,-999,0.00,,,0.00,,2013-06-05 03:53:00,
2013-06-04 23:03:00,66.0,-99.9,-100.00,ENE,74,6.0,8.0,-999,0.00,,,0.00,,2013-06-05 04:03:00,
2013-06-04 23:13:00,66.0,-99.9,-100.00,ENE,74,6.0,8.0,-999,0.00,,,0.00,,2013-06-05 04:13:00,
2013-06-04 23:23:00,66.0,-99.9,-100.00,ENE,74,6.0,8.0,-999,0.00,,,0.00,,2013-06-05 04:23:00,
2013-06-04 23:33:00,66.0,-99.9,-100.00,East,98,5.0,7.0,-999,0.00,,,0.00,,2013-06-05 04:33:00,
2013-06-04 23:43:00,66.0,-99.9,-100.00,East,98,5.0,7.0,-999,0.00,,,0.00,,2013-06-05 04:43:00,
2013-06-04 23:53:00,66.0,-99.9,-100.00,East,98,5.0,7.0,-999,0.00,,,0.00,,2013-06-05 04:53:00,